STARLINK-35170, 65532

Orbit data source: Space-Track

STARLINK-35170, 65532 is a payload satellite owned by SpaceX/Seattle (US) in SSO that was launched on Sat, 06 Sep 2025 UTC via an FALCON 9 launch vehicle from the Air Force Eastern Test Range (AFETR). Payload-class satellites include a variety of spacecraft equipped with specific instruments for various scientific and technological missions. These include communications satellites like Starlink; space stations such as the ISS; scientific satellites like the Hubble; Earth observation satellites from companies like Planet Labs, Umbra, and HawkEye 360; GPS; miniature CubeSats for education and research; and military/defense satellites.

Loading next visibility...
Identifier
65532, 2025-200N
Orbit
SSO
Country
Flag of USUS
Related business
Manufacturer
SpaceX/Seattle
Mission
Operational Commercial Communications
Bus & Motor
STARLINK V2MO, Unknown motor
Mass
575 kg wet, ~530 kg dry
Launch date (UTC)
2025-09-06 (9 months ago)
Launch vehicle
FALCON 9
Launch site
Air Force Eastern Test Range (AFETR)
Object type
Payload
Rocket body
Debris
Shape & HBR
Box + 2 Pan, 17.7 m
Radar Cross Section
36.964 m², Large (>1 m²)

Expand to show TLE details & history
Last TLE update: 16 hours ago

TLE from 16 hours ago
0 STARLINK-35170
1 65532U 25200N   26171.16405443  .00005355  00000-0  37476-3 0  9992
2 65532  97.3381 239.7774 0000909 101.0969 259.0361 15.05658017 44559
Epoch: 2026-06-20T03:56Z
TLE epoch observation values (Epoch: 2026-06-20T03:56:14.302Z)
Latitude
-0.00002°
Longitude
-87.6648°
Altitude
552.679 km
Speed
7.585 km/s
True Right ascension
15h 59m 06s
True Declination
0° 00' 00"
Sunlit
Object was in full shadow at epoch
Visualization orbit readout
Latitude
Unknown
Longitude
Unknown
Altitude
Unknown
Speed
Unknown
Apparent Right ascension
Unknown
Apparent Declination
Unknown
Sunlit
N/A
Visualization observer readout
Local Sidereal Time
07:13:13
Azimuth
Unknown
Elevation
Unknown
Doppler factor
Unknown
Orbital elements
Apogee altitude
547.098 km
Perigee altitude
545.839 km
Semi-major axis
6,924.606 km
Eccentricity
0.00009
Inclination
97.3381°
RAAN
239.7774°
Arg. of periapsis
101.0969°
True anomaly
259.02587°
Mean anomaly
259.0361°
Eccentric anomaly
259.03099°
Mean motion
3.76661 °/min
Orbital period
95.58 mins
BSTAR
0.00037476
Loading maneuver chart data...
Computing Atmospheric mass density...
Loading historical data...
Loading historical data...
Loading historical data...
Loading historical data...
Loading historical data...
Loading historical data...
Loading historical data...

Documentation

Showing up to 5 results
|